[Date Prev][Date Next][Thread Prev][Thread Next] - [Date Index][Thread Index][Author Index]
2 Line ISS Keps 2-21
- Subject: [sarex] 2 Line ISS Keps 2-21
- From: "Dave Larsen Ph.D." <doc@xxxxxxxxxxx>
- Date: Fri, 21 Feb 2003 01:42:47 -0800
ISS
1 25544U 98067A 03052.16151620 .00016930 00000-0 22202-3 0 7125
2 25544 51.6336 242.9759 0012048 227.8712 287.9640 15.58602686242908
----
Via the sarex mailing list at AMSAT.ORG courtesy of AMSAT-NA.
To unsubscribe, send "unsubscribe sarex" to Majordomo@amsat.org
AMSAT Home